Wind_Speed
6 10 14 10 4 5 3 7 3 5 2 2 4 5 10 6 2 4 19 25 28 33 33 29 25 23 21 19 18 18 17 16 16 18 18 20 21 20 16 15 20 19 17 19 18 16 18 20 17
11 16 13 4 5 4 6 5 8 9 5 13 15 11 6 3 5 20 34 18 28 32 33 29 26 23 22 20 19 19 17 16 15 15 16 18 18 17 17 20 23 15 20 22 18 19 22 22 19
18 16 6 5 4 6 6 6 13 10 10 6 6 9 7 9 12 33 17 26 26 32 32 29 26 24 23 22 21 20 17 17 17 16 16 15 16 18 18 25 21 16 19 16 21 26 28 24 20
12 6 3 4 7 7 6 3 7 6 9 5 16 8 7 7 24 20 23 24 27 30 31 29 26 25 23 23 21 20 18 16 17 15 14 14 12 12 16 24 22 18 20 14 18 25 25 22 20
13 5 3 2 7 6 6 6 4 3 8 9 7 4 5 23 13 21 25 23 27 30 31 29 26 24 23 24 22 21 18 16 17 16 11 9 9 12 13 20 21 17 20 14 22 25 22 20 19
5 4 2 5 6 4 6 18 13 6 9 11 11 8 7 17 20 24 24 22 26 30 30 29 27 25 23 23 22 21 19 16 17 15 10 10 12 12 14 17 18 16 19 18 18 24 19 20 18
5 4 5 4 4 4 8 12 8 10 9 7 25 5 16 28 24 25 26 21 27 28 28 27 26 24 23 22 22 21 18 17 17 16 12 9 10 9 11 13 15 18 16 20 15 22 18 19 17
5 4 3 6 6 6 5 8 15 17 10 18 21 8 13 34 28 27 25 23 25 26 26 25 24 24 23 22 21 20 19 19 19 18 13 8 9 8 10 10 15 17 15 17 15 23 21 18 15
9 2 4 5 8 5 6 7 11 17 16 9 18 20 36 36 34 30 27 26 25 22 21 24 23 23 23 22 21 20 19 20 20 19 14 9 7 6 8 10 11 16 16 19 13 24 21 20 15
7 5 9 7 5 3 5 5 15 8 10 6 17 22 39 37 37 35 32 31 28 25 21 23 23 23 22 22 22 21 21 22 21 19 16 10 6 5 9 10 10 13 19 17 12 22 18 22 14
11 8 8 7 16 8 6 5 7 13 4 15 28 40 41 39 36 36 31 29 29 24 21 23 22 24 23 22 22 22 22 23 21 18 17 12 7 8 9 8 11 15 19 19 14 19 26 22 15
4 20 10 14 10 4 3 4 3 7 9 27 29 41 44 40 37 39 36 32 29 24 20 20 21 23 23 22 21 22 22 23 22 19 18 14 9 8 7 7 8 12 17 16 13 17 20 20 16
10 4 25 15 19 11 11 5 2 4 11 23 34 44 44 41 38 36 34 31 27 26 25 23 21 20 21 22 20 20 21 22 21 19 18 16 11 7 6 7 7 10 15 16 18 20 18 14 17
7 26 8 18 28 15 5 6 2 8 13 31 38 43 43 40 38 34 33 32 28 27 26 25 23 21 21 21 19 20 18 20 21 20 18 16 13 9 6 6 8 10 15 16 18 18 15 14 18
27 10 19 22 9 6 17 8 7 9 16 33 40 40 39 37 36 35 33 30 26 26 26 26 24 21 22 20 18 18 18 19 20 20 20 18 16 14 9 8 7 9 14 17 20 18 14 16 12
10 5 9 6 18 8 16 9 7 19 18 26 36 37 37 33 33 32 29 25 23 22 25 26 23 23 22 20 20 18 18 19 19 19 20 21 19 16 11 12 9 10 13 17 20 18 17 17 15
8 13 21 3 17 7 14 5 8 23 18 20 32 33 33 32 30 29 27 23 26 24 23 22 24 24 24 23 22 20 20 19 18 18 20 21 21 19 15 13 13 12 13 16 20 18 17 19 18
9 14 8 17 8 6 8 6 3 17 25 24 26 34 31 30 27 30 30 28 26 25 25 24 22 23 27 25 24 23 22 20 19 19 19 23 24 22 21 17 16 15 14 15 19 19 19 19 19
3 4 13 5 7 12 20 16 8 5 21 20 26 28 31 30 24 26 28 30 29 27 27 26 24 23 26 29 28 27 26 23 23 23 21 23 26 26 25 21 20 18 18 16 18 20 21 22 23
19 5 6 3 7 9 9 11 4 5 3 15 26 28 32 29 26 26 26 28 29 29 29 28 27 27 26 28 29 30 28 27 26 24 24 25 23 29 28 24 24 23 21 19 19 24 25 25 25
23 24 4 5 4 2 9 2 7 7 18 23 22 25 23 21 21 20 21 22 24 25 26 27 29 30 29 28 29 30 31 32 32 33 34 33 28 26 30 29 28 26 24 24 22 24 27 25 27
25 25 14 7 10 11 7 5 5 8 11 11 16 20 19 17 15 14 14 15 18 20 22 24 24 25 28 29 28 31 33 35 37 36 34 35 33 29 28 30 32 30 30 28 26 25 26 27 29
7 15 20 12 5 5 3 5 2 11 7 8 10 19 20 16 13 11 9 9 10 14 16 20 21 24 25 26 26 26 29 29 29 30 32 33 33 33 32 31 33 34 32 31 29 28 29 29 30
8 7 19 15 8 8 9 6 4 8 7 7 10 18 20 19 15 12 9 6 5 6 10 15 17 20 24 27 28 27 28 28 28 29 28 30 30 34 36 35 35 34 34 33 31 31 32 30 31
7 7 8 13 14 10 15 5 3 6 12 11 12 17 22 21 17 13 10 8 6 3 4 10 13 17 21 24 27 28 28 28 28 28 28 27 31 31 36 37 37 38 35 34 32 32 32 33 32
5 12 5 11 9 21 12 9 6 9 16 18 18 20 23 23 18 15 12 10 8 5 2 3 7 13 15 17 24 27 27 26 29 28 28 28 28 31 32 36 37 36 34 36 34 32 36 33 33
5 4 10 2 2 12 7 5 9 10 10 15 17 22 22 20 18 15 11 10 8 6 4 1 2 7 13 13 13 20 23 22 27 28 29 29 27 29 30 32 34 38 36 34 34 34 33 35 36
4 5 1 6 9 6 4 5 9 11 10 11 13 16 19 18 15 13 11 10 8 6 4 2 1 5 10 15 17 17 19 23 27 30 29 27 26 25 24 29 30 35 38 35 34 34 34 34 32
6 5 5 3 2 6 6 2 5 10 10 10 14 17 18 17 16 14 11 9 8 6 5 3 0 3 8 12 16 19 19 21 25 30 29 30 27 27 22 23 27 31 36 35 34 34 34 35 35
7 8 3 2 5 4 4 4 5 9 9 15 14 14 16 15 14 14 13 11 10 8 6 5 3 1 3 8 12 15 20 22 22 25 28 24 30 28 28 25 26 26 27 29 31 33 34 35 35
Wind_Direction
197 170 158 148 87 68 241 249 257 283 218 202 150 163 123 70 135 192 143 158 163 162 164 164 161 159 152 143 139 133 122 123 128 126 131 134 136 136 131 113 100 103 106 116 114 115 123 134 124
180 163 154 126 102 126 253 233 237 225 234 131 105 110 76 91 121 139 149 159 165 163 162 163 162 159 154 147 143 138 128 124 123 118 116 127 131 133 129 108 102 100 94 100 111 108 117 126 118
164 158 141 126 138 189 214 216 233 242 236 217 111 90 100 125 140 147 150 153 165 165 162 161 162 160 157 150 145 141 134 127 127 123 109 110 128 123 118 111 112 100 105 102 111 109 109 112 110
160 147 106 118 213 248 209 205 246 171 204 189 125 78 97 138 146 163 156 157 164 165 164 161 163 162 158 153 148 146 141 133 138 134 118 110 117 126 125 124 122 119 118 117 121 118 115 102 107
158 139 109 207 245 255 250 293 319 163 169 148 139 144 96 152 159 154 157 162 169 165 168 164 163 163 160 158 154 151 149 140 145 142 126 103 117 138 130 132 131 123 122 118 123 129 111 108 112
149 148 112 206 238 250 271 265 263 252 164 150 116 103 131 169 166 157 156 158 173 166 168 166 166 165 163 161 159 157 155 148 149 150 132 105 89 142 138 133 144 124 125 121 130 136 125 115 116
148 115 202 207 252 266 235 247 193 205 160 167 144 104 144 158 165 156 156 155 164 166 167 168 167 168 166 165 164 163 161 153 150 156 147 126 93 110 143 137 135 133 131 126 129 141 123 122 123
192 110 210 225 199 258 235 202 210 186 189 146 159 162 170 160 162 157 159 153 152 165 170 169 171 172 170 169 169 166 165 159 155 165 159 141 106 98 154 147 136 132 133 131 128 144 135 127 116
190 109 216 228 171 232 245 187 191 196 160 148 180 158 159 160 164 161 162 163 163 163 169 174 172 173 174 173 170 171 170 168 166 171 169 157 130 102 146 154 144 141 136 130 136 144 145 132 119
168 175 214 211 219 232 297 225 158 160 140 117 147 156 156 162 168 169 168 167 168 170 176 182 177 172 174 176 177 177 177 176 175 176 175 167 148 117 142 154 157 138 129 135 145 155 146 133 126
193 204 202 233 235 257 284 213 202 156 193 171 152 156 162 168 171 171 177 178 176 174 170 179 178 178 179 178 179 182 185 182 179 181 180 174 154 121 131 147 161 149 143 149 154 152 144 140 133
189 236 187 225 189 254 246 289 190 175 178 174 173 166 166 172 173 175 178 178 177 182 176 172 180 182 182 181 182 185 187 185 184 185 188 180 176 143 127 127 153 158 160 157 149 153 144 148 142
208 251 222 224 218 249 296 298 193 176 152 175 167 168 171 176 177 181 180 180 183 184 181 177 179 185 183 185 187 190 193 193 189 192 193 181 197 178 154 133 146 164 169 158 148 139 130 124 149
217 229 230 231 242 254 235 255 234 186 149 161 167 171 174 178 180 180 183 185 189 188 184 183 186 189 186 182 187 192 199 198 195 198 205 192 194 201 186 158 141 156 166 161 153 149 147 130 156
220 217 233 242 210 214 205 246 201 178 167 167 170 174 176 179 181 185 187 189 189 191 190 188 190 192 196 190 190 193 202 198 201 201 207 202 205 204 210 185 159 150 156 165 156 156 159 163 176
189 209 228 223 210 216 177 227 220 192 176 173 182 181 181 182 185 187 190 194 190 187 189 195 193 192 196 196 197 199 200 202 205 205 206 208 210 210 221 196 195 169 163 167 168 169 166 173 178
201 216 216 269 193 172 188 191 211 204 186 174 182 183 178 176 181 185 187 186 193 196 193 190 197 200 199 203 207 209 206 206 206 208 211 214 214 216 226 222 206 198 180 174 175 176 175 180 183
197 205 214 209 189 155 178 180 189 194 191 181 173 177 172 170 173 184 187 187 184 180 190 198 202 205 209 210 210 209 212 215 214 216 214 217 217 221 221 231 221 216 195 191 186 191 187 191 191
189 201 211 243 215 175 197 191 194 185 188 184 179 158 149 151 152 163 173 181 186 187 193 198 209 215 211 211 211 211 216 208 217 219 216 217 216 220 226 229 225 220 216 208 200 201 201 197 201
239 245 225 237 201 184 181 197 106 38 60 164 149 141 148 144 154 160 168 176 184 192 197 201 206 210 221 223 222 223 224 226 221 223 224 223 222 221 221 224 228 223 223 221 219 210 205 209 206
229 225 171 180 180 50 117 133 158 63 82 91 104 130 130 132 141 149 159 168 180 190 198 205 210 213 217 225 231 232 230 232 231 227 227 228 226 225 227 223 226 231 226 233 236 219 221 223 213
223 220 196 192 185 206 163 199 152 138 92 71 80 106 110 120 128 136 150 165 176 186 195 203 205 210 217 222 229 234 232 232 232 231 231 230 226 223 226 222 232 228 232 235 234 231 238 229 223
253 211 210 211 181 120 228 117 176 137 125 108 90 91 92 98 112 117 128 154 172 194 204 210 213 215 216 219 222 233 235 234 236 235 233 234 231 220 221 222 230 229 235 236 233 234 234 234 235
285 236 199 199 210 219 204 147 209 183 155 119 94 87 91 89 93 96 101 121 152 183 208 217 219 223 223 225 226 226 235 236 235 235 237 234 227 221 224 224 227 232 233 232 236 236 232 236 237
270 168 182 197 207 215 187 168 70 34 88 101 99 84 84 83 84 87 85 88 95 139 202 228 234 236 234 231 231 231 232 240 240 239 239 236 230 223 222 224 228 227 231 235 234 235 237 234 240
295 223 211 211 188 196 170 167 146 92 80 82 78 74 76 71 73 71 68 65 71 74 104 191 226 242 233 238 235 234 232 238 243 244 243 244 240 239 236 230 230 229 229 232 232 236 233 240 235
332 235 322 190 308 175 114 74 87 98 77 68 64 61 59 60 57 54 53 49 53 55 53 62 213 226 236 239 227 227 224 228 240 242 243 246 246 243 242 238 234 231 230 230 234 233 239 234 236
1 356 329 219 182 131 83 117 141 145 106 81 65 58 53 55 53 47 41 41 43 42 39 30 266 238 235 235 232 227 217 222 229 231 238 240 246 247 247 240 231 229 231 233 234 234 234 233 237
354 9 333 244 279 198 130 93 40 103 100 84 77 65 54 48 43 39 35 34 34 34 27 14 346 233 235 237 236 232 232 231 233 235 232 235 235 240 243 237 230 230 232 233 232 235 235 235 238
91 356 259 301 2 34 43 92 16 88 88 76 65 64 55 46 37 33 29 28 32 32 29 25 1 344 248 236 234 235 235 239 240 241 238 236 234 234 229 233 228 234 228 229 230 232 235 238 240
Height
1501 1503 1505 1508 1521 1526 1527 1514 1498 1496 1492 1488 1487 1489 1492 1496 1498 1511 1503 1509 1514 1518 1523 1528 1532 1535 1537 1540 1541 1543 1545 1546 1548 1549 1550 1552 1553 1554 1555 1556 1556 1558 1558 1559 1560 1560 1560 1562 1563
1500 1503 1506 1507 1525 1533 1524 1504 1496 1490 1487 1488 1488 1489 1491 1499 1499 1500 1505 1511 1514 1518 1523 1528 1532 1535 1538 1540 1542 1544 1546 1548 1549 1551 1552 1554 1554 1555 1556 1558 1559 1560 1560 1561 1561 1561 1562 1564 1566
1500 1503 1504 1510 1524 1525 1515 1494 1488 1484 1486 1486 1486 1489 1492 1496 1498 1500 1506 1509 1514 1518 1523 1528 1532 1535 1538 1541 1543 1545 1547 1549 1551 1552 1554 1555 1556 1557 1558 1560 1562 1563 1564 1565 1565 1565 1566 1568 1570
1500 1503 1506 1513 1516 1503 1494 1485 1483 1482 1484 1485 1485 1490 1494 1495 1497 1502 1505 1510 1514 1518 1523 1528 1532 1536 1538 1541 1543 1546 1548 1550 1552 1554 1555 1556 1558 1559 1559 1561 1564 1565 1567 1567 1568 1569 1570 1572 1573
1498 1500 1510 1512 1507 1495 1487 1483 1482 1480 1481 1482 1484 1492 1494 1497 1499 1502 1506 1510 1514 1518 1524 1528 1532 1536 1539 1541 1544 1547 1549 1551 1553 1555 1557 1558 1559 1560 1561 1563 1565 1566 1568 1569 1570 1572 1574 1575 1576
1496 1497 1512 1513 1502 1489 1484 1481 1483 1483 1479 1482 1484 1489 1495 1497 1499 1503 1507 1512 1517 1519 1524 1528 1532 1536 1539 1542 1545 1547 1549 1552 1555 1556 1558 1560 1560 1561 1562 1564 1565 1566 1569 1571 1572 1575 1576 1578 1579
1493 1498 1503 1500 1495 1489 1482 1479 1479 1480 1478 1481 1481 1490 1495 1497 1500 1503 1508 1513 1517 1521 1524 1528 1532 1535 1539 1542 1545 1548 1550 1553 1555 1557 1559 1561 1562 1562 1564 1565 1566 1568 1571 1572 1574 1576 1578 1580 1581
1491 1494 1496 1493 1492 1488 1475 1475 1473 1475 1477 1479 1481 1488 1493 1496 1499 1504 1509 1513 1517 1522 1525 1528 1532 1535 1538 1542 1545 1548 1551 1553 1556 1557 1559 1562 1563 1564 1565 1566 1567 1570 1572 1573 1576 1577 1580 1582 1583
1488 1497 1499 1487 1488 1477 1470 1471 1470 1472 1472 1475 1479 1481 1489 1495 1499 1503 1508 1513 1517 1522 1525 1528 1531 1534 1538 1541 1545 1548 1551 1553 1556 1558 1560 1562 1564 1565 1566 1568 1569 1571 1572 1575 1577 1579 1580 1583 1584
1483 1493 1485 1475 1472 1470 1468 1468 1466 1470 1472 1475 1477 1481 1488 1493 1497 1500 1504 1509 1514 1518 1523 1527 1530 1533 1537 1540 1544 1547 1550 1553 1556 1558 1561 1563 1565 1566 1567 1569 1570 1571 1574 1577 1579 1581 1582 1585 1586
1475 1477 1471 1469 1469 1469 1467 1465 1467 1465 1471 1469 1473 1479 1486 1491 1496 1499 1504 1508 1511 1517 1521 1526 1530 1533 1536 1539 1542 1545 1549 1553 1556 1559 1561 1564 1565 1567 1568 1570 1570 1572 1575 1577 1579 1581 1584 1586 1588
1472 1465 1465 1465 1466 1467 1467 1465 1465 1464 1463 1467 1471 1475 1484 1490 1494 1497 1502 1507 1511 1516 1520 1524 1528 1532 1536 1539 1541 1545 1548 1551 1555 1558 1561 1564 1566 1567 1569 1570 1571 1573 1575 1577 1580 1582 1586 1588 1590
1464 1462 1463 1463 1465 1465 1466 1465 1464 1464 1464 1467 1471 1475 1481 1488 1494 1498 1502 1507 1511 1515 1519 1523 1527 1531 1534 1538 1541 1544 1547 1551 1554 1557 1560 1563 1566 1568 1570 1571 1572 1574 1575 1578 1580 1583 1586 1589 1591
1456 1458 1459 1460 1463 1465 1467 1465 1465 1465 1465 1466 1471 1475 1480 1486 1491 1497 1502 1506 1510 1514 1518 1522 1526 1530 1533 1536 1540 1544 1546 1550 1553 1556 1558 1562 1566 1568 1570 1571 1573 1574 1576 1578 1581 1584 1587 1590 1591
1457 1460 1458 1454 1459 1462 1464 1468 1465 1463 1465 1468 1471 1475 1481 1486 1491 1495 1499 1504 1509 1514 1517 1521 1525 1529 1532 1536 1539 1542 1546 1548 1552 1555 1557 1560 1565 1567 1570 1572 1573 1575 1577 1579 1581 1584 1587 1590 1591
1454 1460 1458 1441 1452 1456 1461 1464 1459 1460 1463 1465 1470 1475 1479 1485 1490 1495 1500 1504 1508 1513 1516 1520 1524 1527 1531 1534 1538 1541 1544 1547 1551 1554 1556 1559 1563 1567 1569 1571 1573 1575 1577 1579 1581 1583 1586 1589 1591
1449 1440 1443 1442 1439 1449 1453 1458 1454 1456 1460 1464 1468 1473 1479 1484 1489 1494 1499 1502 1506 1511 1515 1519 1522 1525 1529 1533 1536 1540 1543 1545 1549 1552 1555 1558 1561 1565 1568 1570 1572 1574 1577 1579 1581 1583 1586 1589 1591
1433 1440 1440 1440 1439 1444 1450 1452 1449 1452 1457 1462 1466 1472 1477 1481 1485 1489 1494 1498 1503 1507 1513 1517 1521 1524 1527 1530 1534 1537 1540 1544 1547 1550 1553 1556 1559 1562 1566 1568 1570 1573 1576 1578 1581 1582 1584 1588 1590
1424 1431 1435 1435 1433 1436 1437 1445 1447 1450 1455 1459 1465 1469 1473 1477 1482 1486 1490 1495 1499 1504 1508 1512 1516 1521 1524 1527 1530 1533 1535 1540 1544 1547 1551 1553 1556 1559 1563 1566 1569 1571 1573 1576 1579 1581 1584 1586 1588
1428 1433 1434 1434 1431 1434 1441 1445 1449 1453 1455 1456 1461 1468 1471 1476 1480 1484 1488 1492 1496 1500 1503 1507 1511 1515 1520 1524 1527 1531 1534 1536 1541 1544 1547 1550 1553 1556 1560 1563 1566 1569 1571 1575 1577 1578 1580 1583 1584
1420 1423 1435 1433 1433 1435 1443 1454 1450 1460 1459 1461 1466 1468 1472 1475 1478 1482 1485 1488 1492 1496 1500 1504 1507 1511 1514 1518 1522 1525 1529 1532 1535 1537 1542 1545 1549 1552 1556 1560 1562 1566 1568 1571 1574 1576 1578 1579 1581
1413 1415 1426 1431 1435 1439 1433 1461 1458 1461 1466 1469 1471 1473 1475 1476 1479 1481 1484 1486 1490 1493 1496 1499 1503 1507 1510 1513 1516 1518 1522 1525 1528 1533 1538 1541 1545 1548 1551 1555 1558 1561 1564 1567 1571 1573 1575 1576 1578
1410 1412 1418 1428 1436 1441 1438 1456 1454 1463 1471 1476 1477 1477 1477 1478 1480 1481 1483 1486 1488 1491 1494 1496 1499 1502 1505 1508 1510 1514 1517 1521 1524 1528 1532 1535 1539 1543 1547 1551 1553 1556 1559 1562 1565 1568 1570 1573 1576
1416 1413 1415 1424 1434 1433 1431 1439 1466 1460 1464 1477 1480 1480 1480 1481 1481 1482 1483 1485 1487 1489 1491 1494 1496 1499 1501 1503 1506 1508 1512 1516 1519 1523 1526 1529 1532 1536 1540 1544 1547 1551 1554 1556 1560 1563 1566 1569 1572
1413 1408 1401 1408 1417 1411 1419 1438 1476 1477 1473 1478 1480 1482 1482 1482 1482 1483 1484 1485 1486 1487 1489 1491 1494 1496 1498 1500 1502 1504 1507 1511 1515 1518 1521 1524 1526 1529 1533 1537 1541 1544 1548 1551 1555 1557 1560 1563 1566
1421 1400 1381 1382 1388 1398 1411 1435 1477 1482 1481 1481 1483 1484 1483 1483 1485 1485 1485 1486 1485 1486 1487 1489 1491 1493 1494 1496 1498 1500 1503 1507 1510 1513 1516 1519 1522 1524 1528 1531 1535 1538 1543 1546 1548 1551 1554 1558 1561
1426 1412 1415 1394 1395 1389 1452 1481 1483 1483 1485 1485 1485 1485 1486 1486 1485 1486 1486 1486 1486 1485 1486 1487 1488 1490 1492 1493 1494 1496 1498 1501 1505 1508 1511 1513 1516 1519 1521 1525 1529 1532 1535 1539 1542 1544 1547 1551 1554
1446 1442 1412 1393 1387 1398 1455 1465 1473 1483 1486 1489 1489 1490 1490 1489 1488 1489 1488 1488 1486 1486 1486 1486 1486 1487 1488 1490 1491 1493 1495 1497 1500 1503 1505 1508 1511 1513 1516 1518 1521 1525 1529 1533 1536 1539 1541 1544 1547
1460 1460 1456 1441 1416 1372 1450 1478 1483 1485 1489 1492 1493 1494 1493 1492 1492 1491 1490 1489 1487 1486 1485 1485 1485 1485 1485 1487 1488 1489 1491 1493 1495 1497 1500 1503 1506 1508 1511 1513 1516 1519 1522 1526 1529 1532 1535 1537 1541
1469 1474 1469 1444 1426 1446 1448 1492 1492 1491 1494 1495 1496 1497 1497 1496 1495 1493 1492 1490 1487 1485 1484 1483 1483 1482 1482 1483 1485 1486 1487 1489 1491 1493 1495 1498 1500 1503 1506 1509 1511 1513 1516 1519 1523 1526 1529 1531 1534